[[{"header":{"parameterUnit":"m.s-1","parameterCategory":1,"la1":30.2991,"la2":30.254,"lo1":-89.0895,"lo2":-89.0444,"dy":0.0017,"dx":0.0017,"nx":28,"ny":28,"refTime":"2024-03-29T03:00:00:Z","depth":0,"parameterNumber":2,"parameterNumberName":"U-component_of_WINDS"},"data":[0,0,0,0,0,0,0,0,0,0,0,0,0,0,0,0,0,0,0,0,0,0,0,0,0,0,0,0,0,0,0,0,0,0,0,0,0,0,0,0,0,0,0,0,0,0,0,0,0,0,0,0,0,0,0,0,0,0,-0.5177,-0.5177,0,-0.5203,-0.5203,-0.5203,-0.5191,-0.519,-0.5189,-0.5189,-0.5218,-0.522,-0.5221,0,0,0,0,0,0,0,0,0,0,0,0,0,-0.5119,-0.512,-0.5177,-0.5177,-0.5177,-0.5203,-0.5203,-0.5204,-0.5191,-0.519,-0.5189,-0.5188,-0.5218,-0.522,-0.5221,0,0,0,0,0,0,0,0,0,0,0,0,0,-0.5144,-0.512,-0.5177,-0.5174,-0.5174,-0.5203,-0.5203,-0.5204,-0.5191,-0.519,-0.5189,-0.5188,-0.5217,-0.5219,-0.5222,-0.5256,0,0,-0.5228,-0.5229,0,0,0,0,0,0,0,0,-0.5143,-0.5146,-0.5174,-0.5174,-0.5174,-0.5192,-0.5194,-0.5221,-0.5191,-0.5185,-0.5189,-0.5187,-0.5211,-0.5213,-0.5221,-0.5257,-0.5258,-0.5228,-0.523,-0.5231,-0.5231,0,0,0,0,0,0,0,-0.5141,-0.5145,-0.5187,-0.5174,-0.5175,-0.5172,-0.5175,-0.5199,-0.5203,-0.5185,-0.5184,-0.5187,-0.5211,-0.5219,-0.5221,-0.5259,-0.5228,-0.523,-0.5232,-0.5232,-0.5325,-0.5326,0,0,0,0,0,0,-0.5139,-0.5144,-0.5186,-0.5188,-0.5156,-0.5174,-0.5177,-0.5188,-0.5203,-0.5204,-0.5188,-0.5187,-0.5215,-0.5219,-0.5222,-0.5264,-0.5231,-0.5233,-0.5234,-0.5323,-0.5325,-0.5326,0,0,0,0,0,0,-0.5138,-0.5143,-0.5185,-0.5166,-0.5171,-0.5176,-0.5188,-0.5189,-0.5197,-0.5205,-0.5206,-0.5195,-0.5215,-0.5219,-0.5247,-0.5264,-0.5234,-0.5236,-0.5322,-0.5324,-0.5325,-0.5346,0,0,0,0,0,0,-0.5136,-0.5143,-0.5155,-0.5166,-0.5172,-0.5209,-0.5189,-0.519,-0.52,-0.5198,-0.5212,-0.5214,-0.5214,-0.5244,-0.5249,-0.5267,-0.5237,-0.5321,-0.5323,-0.5325,-0.5344,-0.5348,-0.5352,0,0,0,0,0,-0.5134,-0.516,-0.5156,-0.5161,-0.5187,-0.521,-0.5214,-0.5213,-0.5201,-0.5214,-0.522,-0.5213,-0.5261,-0.5247,-0.5253,-0.5271,-0.532,-0.5322,-0.5325,-0.5342,-0.5347,-0.5352,0,0,0,0,0,0,-0.5152,-0.5162,-0.5157,-0.5187,-0.5197,-0.5208,-0.5224,-0.5219,-0.5234,-0.5232,-0.5231,-0.5235,-0.5264,-0.527,-0.5254,-0.5305,-0.5289,-0.5293,-0.53,-0.5305,-0.5309,-0.5307,-0.5239,0,0,0,0,0,-0.5159,-0.5176,-0.5184,-0.521,-0.5215,-0.5219,-0.5229,-0.5227,-0.5239,-0.5244,-0.5251,-0.5264,-0.5281,-0.5293,-0.531,-0.5344,-0.5348,-0.536,-0.5364,-0.5367,-0.5371,-0.539,-0.5396,-0.5335,-0.5335,-0.5335,0,0,-0.5175,-0.5182,-0.5193,-0.5213,-0.5222,-0.524,-0.5223,-0.5243,-0.5257,-0.5247,-0.5274,-0.528,-0.5294,-0.5325,-0.5339,-0.5331,-0.5388,-0.537,-0.5373,-0.5375,-0.5393,-0.5399,-0.5404,-0.5336,-0.5336,-0.5336,0,0,-0.5213,-0.5219,-0.5242,-0.525,-0.5263,-0.5265,-0.527,-0.5281,-0.5284,-0.5311,-0.5304,-0.5321,-0.5352,-0.5362,-0.5371,-0.5412,-0.5407,-0.5418,-0.544,-0.5458,-0.5463,-0.5467,-0.5483,-0.5488,-0.5421,-0.5422,-0.5422,0,-0.5231,-0.5257,-0.5255,-0.5275,-0.5285,-0.5275,-0.5299,-0.5307,-0.5325,-0.5332,-0.5323,-0.5361,-0.537,-0.5404,-0.5414,-0.5421,-0.5428,-0.5417,-0.5462,-0.5467,-0.5471,-0.5486,-0.5491,-0.5423,-0.5423,-0.5423,-0.5422,0,-0.528,-0.5298,-0.5315,-0.5331,-0.5342,-0.5364,-0.5366,-0.5378,-0.5375,-0.5379,-0.5406,-0.5416,-0.5435,-0.5443,-0.5441,-0.5476,-0.5471,-0.5462,-0.5446,-0.5478,-0.5492,-0.5497,-0.5425,-0.5424,-0.5424,-0.5424,0,0,-0.5331,-0.5344,-0.5351,-0.5358,-0.5371,-0.5385,-0.5407,-0.5424,-0.5435,-0.5447,-0.5466,-0.5492,-0.5484,-0.5494,-0.5494,-0.551,-0.5543,-0.5499,-0.5499,-0.5507,-0.5583,-0.5591,-0.5597,-0.5539,-0.554,-0.5541,-0.5583,0,-0.537,-0.5407,-0.5405,-0.544,-0.5458,-0.5449,-0.5468,-0.5478,-0.5482,-0.5498,-0.5502,-0.5521,-0.5508,-0.5514,-0.553,-0.5535,-0.5558,-0.5532,-0.5558,-0.5558,-0.5555,-0.5605,-0.5613,-0.5652,-0.5588,-0.5589,-0.559,0,-0.5421,-0.5434,-0.5471,-0.5481,-0.5488,-0.5505,-0.5521,-0.5536,-0.5548,-0.555,-0.5561,-0.5557,-0.558,-0.5562,-0.5595,-0.5577,-0.5587,-0.5592,-0.5593,-0.5596,-0.5577,-0.561,-0.5664,-0.5671,-0.5598,-0.5597,-0.5597,0,-0.5456,-0.5483,-0.5508,-0.5515,-0.5527,-0.5539,-0.5545,-0.5555,-0.5566,-0.558,-0.5587,-0.5604,-0.5614,-0.5627,-0.5629,-0.5616,-0.5662,-0.5644,-0.5665,-0.5665,-0.5676,-0.5675,-0.5733,-0.568,-0.568,-0.568,-0.568,0,-0.5501,-0.5524,-0.5524,-0.554,-0.5566,-0.5563,-0.5589,-0.5594,-0.5603,-0.562,-0.5614,-0.563,-0.5631,-0.5648,-0.5649,-0.5676,-0.568,-0.5683,-0.5683,-0.5684,-0.5684,-0.5692,-0.5689,-0.5682,-0.5681,-0.5681,-0.5681,0,-0.5545,-0.5546,-0.5573,-0.5582,-0.5584,-0.5603,-0.5611,-0.5627,-0.5629,-0.5651,-0.5656,-0.566,-0.568,-0.5682,-0.5706,-0.5707,-0.5739,-0.5736,-0.5735,-0.5735,-0.5756,-0.5755,-0.5822,-0.5831,-0.5771,-0.5772,-0.5772,0,-0.5574,-0.5592,-0.5602,-0.5612,-0.5619,-0.5636,-0.5646,-0.5645,-0.5656,-0.567,-0.5685,-0.5703,-0.5719,-0.5751,-0.5757,-0.5775,-0.5773,-0.5795,-0.5775,-0.5776,-0.5774,-0.5774,-0.5776,-0.5799,-0.58,-0.58,-0.5801,0,-0.5627,-0.5626,-0.5641,-0.5656,-0.5668,-0.5681,-0.5692,-0.5701,-0.5701,-0.5714,-0.5734,-0.5746,-0.5769,-0.5788,-0.5806,-0.5813,-0.5807,-0.5807,-0.5813,-0.5814,-0.5814,-0.5815,-0.5747,-0.5806,-0.5805,-0.5805,-0.5804,-0.5804,-0.5665,-0.568,-0.5689,-0.5706,-0.5714,-0.5725,-0.574,-0.5744,-0.576,-0.5778,-0.5776,-0.5798,-0.581,-0.5832,-0.5841,-0.5858,-0.5851,-0.586,-0.5862,-0.5864,-0.5867,-0.581,-0.5861,-0.5861,-0.5861,-0.5861,-0.5861,0,-0.5718,-0.5723,-0.5738,-0.5754,-0.5768,-0.576,-0.5772,-0.5784,-0.5803,-0.5814,-0.5828,-0.5851,-0.587,-0.5876,-0.5895,-0.5908,-0.5906,-0.5913,-0.5912,-0.5914,-0.5872,-0.5865,-0.5914,-0.5914,-0.5914,-0.5914,-0.5914,-0.5914,-0.5747,-0.5772,-0.5773,-0.5802,-0.5808,-0.5828,-0.5836,-0.5846,-0.5854,-0.588,-0.5895,-0.5899,-0.5908,-0.5927,-0.5944,-0.5945,-0.5953,-0.5961,-0.5962,-0.5922,-0.5917,-0.5912,-0.5906,-0.5963,-0.5963,-0.6003,-0.6003,-0.6004]},{"header":{"parameterUnit":"m.s-1","parameterCategory":1,"la1":30.2991,"la2":30.254,"lo1":-89.0895,"lo2":-89.0444,"dy":0.0017,"dx":0.0017,"nx":28,"ny":28,"refTime":"2024-03-29T03:00:00:Z","depth":0,"parameterNumber":3,"parameterNumberName":"V-component_of_WINDS"},"data":[0,0,0,0,0,0,0,0,0,0,0,0,0,0,0,0,0,0,0,0,0,0,0,0,0,0,0,0,0,0,0,0,0,0,0,0,0,0,0,0,0,0,0,0,0,0,0,0,0,0,0,0,0,0,0,0,0,0,-2.018,-2.0181,0,-2.025,-2.0251,-2.0252,-2.0261,-2.026,-2.0259,-2.0259,-2.0328,-2.0331,-2.0333,0,0,0,0,0,0,0,0,0,0,0,0,0,-2.0053,-2.0056,-2.018,-2.0181,-2.0182,-2.025,-2.0251,-2.0252,-2.0261,-2.026,-2.0259,-2.0259,-2.0328,-2.033,-2.0333,0,0,0,0,0,0,0,0,0,0,0,0,0,-2.0114,-2.0056,-2.018,-2.0195,-2.0197,-2.025,-2.0251,-2.0252,-2.0261,-2.026,-2.0259,-2.0258,-2.0327,-2.033,-2.0334,-2.0377,0,0,-2.0345,-2.0347,0,0,0,0,0,0,0,0,-2.0111,-2.0119,-2.0192,-2.0194,-2.0196,-2.0246,-2.0232,-2.0294,-2.0261,-2.0237,-2.0259,-2.0258,-2.0302,-2.0307,-2.0323,-2.038,-2.0383,-2.0345,-2.0348,-2.0349,-2.035,0,0,0,0,0,0,0,-2.0107,-2.0116,-2.0208,-2.0193,-2.0196,-2.0197,-2.0205,-2.0244,-2.0274,-2.0239,-2.024,-2.0248,-2.0303,-2.0319,-2.0324,-2.0384,-2.0345,-2.0349,-2.0351,-2.0352,-2.0481,-2.0482,0,0,0,0,0,0,-2.01,-2.0112,-2.0206,-2.021,-2.015,-2.0201,-2.0209,-2.0231,-2.0273,-2.0279,-2.0249,-2.0248,-2.0313,-2.032,-2.0327,-2.038,-2.0349,-2.0353,-2.0355,-2.0479,-2.0481,-2.0482,0,0,0,0,0,0,-2.0097,-2.0108,-2.0203,-2.0162,-2.0174,-2.0204,-2.0228,-2.0233,-2.0249,-2.0281,-2.0286,-2.026,-2.0313,-2.0321,-2.0365,-2.0382,-2.0354,-2.0358,-2.0478,-2.048,-2.0482,-2.0487,0,0,0,0,0,0,-2.0093,-2.0107,-2.0124,-2.0162,-2.0176,-2.024,-2.0229,-2.0235,-2.0256,-2.0256,-2.0293,-2.0298,-2.0312,-2.0359,-2.0368,-2.0387,-2.0361,-2.0477,-2.0479,-2.0481,-2.0485,-2.0488,-2.0491,0,0,0,0,0,-2.0089,-2.0122,-2.0125,-2.0136,-2.0198,-2.0241,-2.0249,-2.0266,-2.0257,-2.0274,-2.0295,-2.0297,-2.0379,-2.0363,-2.0374,-2.0394,-2.0475,-2.0478,-2.0481,-2.0483,-2.0488,-2.0491,0,0,0,0,0,0,-2.0085,-2.0127,-2.0131,-2.0177,-2.0206,-2.0242,-2.0264,-2.0269,-2.03,-2.0298,-2.0317,-2.0325,-2.0368,-2.0385,-2.0367,-2.0438,-2.0426,-2.0431,-2.0425,-2.0429,-2.0432,-2.0427,-2.0364,0,0,0,0,0,-2.0089,-2.0121,-2.0157,-2.0194,-2.0208,-2.0234,-2.0253,-2.0264,-2.0294,-2.0305,-2.0329,-2.0357,-2.039,-2.041,-2.0442,-2.0488,-2.0496,-2.0507,-2.051,-2.0512,-2.0516,-2.0542,-2.0547,-2.0491,-2.0491,-2.0491,0,0,-2.0099,-2.0126,-2.0145,-2.0194,-2.0217,-2.025,-2.0244,-2.0278,-2.0303,-2.031,-2.0353,-2.0371,-2.0404,-2.0449,-2.047,-2.0465,-2.0534,-2.0516,-2.0517,-2.052,-2.0545,-2.0551,-2.0555,-2.0493,-2.0492,-2.0492,0,0,-2.0133,-2.0157,-2.0191,-2.0214,-2.025,-2.0267,-2.0275,-2.0312,-2.0324,-2.0367,-2.0374,-2.0403,-2.0458,-2.0481,-2.05,-2.0544,-2.0547,-2.0554,-2.057,-2.0595,-2.0599,-2.0603,-2.0619,-2.0624,-2.0558,-2.0558,-2.0558,0,-2.014,-2.0189,-2.0207,-2.0242,-2.0264,-2.0273,-2.0308,-2.033,-2.0373,-2.0388,-2.0382,-2.0452,-2.0474,-2.0525,-2.0536,-2.0551,-2.0561,-2.0549,-2.0597,-2.0602,-2.0606,-2.0621,-2.0626,-2.0558,-2.0558,-2.0558,-2.0558,0,-2.0196,-2.0231,-2.0254,-2.0297,-2.0321,-2.0355,-2.0378,-2.0401,-2.0409,-2.0427,-2.047,-2.0498,-2.0536,-2.0549,-2.0557,-2.06,-2.0596,-2.0594,-2.0582,-2.0611,-2.0626,-2.0632,-2.0559,-2.0559,-2.0559,-2.0559,0,0,-2.0229,-2.0282,-2.029,-2.031,-2.035,-2.0377,-2.0412,-2.0449,-2.0468,-2.0498,-2.0527,-2.0574,-2.0573,-2.0594,-2.0605,-2.0627,-2.066,-2.0622,-2.0623,-2.0628,-2.071,-2.0711,-2.0718,-2.0663,-2.0664,-2.0665,-2.0707,0,-2.0267,-2.033,-2.0348,-2.0401,-2.0433,-2.0443,-2.0473,-2.0501,-2.0519,-2.0548,-2.0567,-2.06,-2.0595,-2.0609,-2.0631,-2.0651,-2.0677,-2.0649,-2.069,-2.0691,-2.0681,-2.0725,-2.0727,-2.0765,-2.0713,-2.0714,-2.0714,0,-2.032,-2.0352,-2.0409,-2.0445,-2.0459,-2.0487,-2.0523,-2.0551,-2.0582,-2.0594,-2.0618,-2.0628,-2.0664,-2.0652,-2.0702,-2.0682,-2.07,-2.0713,-2.0715,-2.0719,-2.0704,-2.073,-2.0778,-2.0783,-2.0724,-2.0723,-2.0722,0,-2.0338,-2.0395,-2.0436,-2.0453,-2.0497,-2.0516,-2.0535,-2.0566,-2.0587,-2.0619,-2.0633,-2.0668,-2.0687,-2.0713,-2.0732,-2.0721,-2.0781,-2.0769,-2.0791,-2.079,-2.0802,-2.0801,-2.0853,-2.0814,-2.0814,-2.0814,-2.0814,0,-2.0379,-2.0413,-2.0445,-2.047,-2.0509,-2.0529,-2.0566,-2.0586,-2.0613,-2.0642,-2.0653,-2.068,-2.0703,-2.0733,-2.0748,-2.0787,-2.0796,-2.0805,-2.0809,-2.0804,-2.0803,-2.0816,-2.0813,-2.0816,-2.0815,-2.0815,-2.0815,0,-2.0405,-2.0428,-2.0473,-2.0512,-2.0522,-2.0549,-2.0581,-2.0606,-2.0624,-2.0661,-2.0671,-2.0699,-2.0735,-2.0757,-2.0802,-2.0811,-2.0855,-2.0857,-2.0844,-2.0846,-2.0866,-2.0864,-2.0927,-2.0937,-2.0892,-2.0893,-2.0893,0,-2.0429,-2.0456,-2.0497,-2.0518,-2.0537,-2.057,-2.0593,-2.0614,-2.0636,-2.0675,-2.0695,-2.0732,-2.0762,-2.0819,-2.0844,-2.0878,-2.0881,-2.0901,-2.0886,-2.0881,-2.0881,-2.0879,-2.0882,-2.0904,-2.0904,-2.0904,-2.0905,0,-2.047,-2.048,-2.0512,-2.0549,-2.0575,-2.0605,-2.0634,-2.065,-2.0676,-2.0701,-2.0738,-2.0762,-2.0809,-2.0845,-2.0882,-2.0901,-2.0907,-2.0909,-2.0916,-2.0911,-2.0903,-2.0907,-2.0851,-2.0907,-2.0907,-2.0907,-2.0907,-2.0907,-2.0495,-2.052,-2.0553,-2.0588,-2.0613,-2.064,-2.0666,-2.0688,-2.0719,-2.0759,-2.077,-2.0809,-2.084,-2.0891,-2.0911,-2.0942,-2.0938,-2.0948,-2.095,-2.0952,-2.0953,-2.0898,-2.0948,-2.0948,-2.0948,-2.0948,-2.0948,0,-2.0536,-2.0559,-2.0591,-2.0632,-2.066,-2.0665,-2.0698,-2.0721,-2.0755,-2.0784,-2.0815,-2.0858,-2.0893,-2.0921,-2.0957,-2.0976,-2.098,-2.0985,-2.0983,-2.0988,-2.0954,-2.0944,-2.0981,-2.0981,-2.0981,-2.0981,-2.0981,-2.0981,-2.0561,-2.0602,-2.0617,-2.067,-2.0692,-2.0731,-2.075,-2.0775,-2.0798,-2.0846,-2.0876,-2.0894,-2.0923,-2.0961,-2.0994,-2.1001,-2.1014,-2.1019,-2.1026,-2.0994,-2.099,-2.0987,-2.0978,-2.1021,-2.1021,-2.1058,-2.1058,-2.1058]}]]